Lexington Weather

Lexington, Massachusetts, USA

40°F
3/2/2024 9:03am 
  • Lexington Conditions: Overcast
  • Temperature: 39.7°F / 4.3°CWarmer 1.8°F than last hour.
  • Dew Point: 33.8°FIncreased 1.1°Fsince last hour.
  • Relative Humidity: 79%Decreased 2.0% since last hour.
  • Wind: Wind from SSW SSW 1 mph, 10-min avg: Calm, gust: 1 mph
  • Barometer: 30.44 in Steady
  • Visibility: 10 miles
  • Rain Today: 0.00 in
  •   

Regional Weather Roundup
for Boston, MA

        
000
ASUS41 KBOX 281810
RWRBOX

REGIONAL WEATHER ROUNDUP
NATIONAL WEATHER SERVICE BOSTON/NORTON MA
100 PM EST WED FEB 28 2024

NOTE:  "FAIR" INDICATES FEW OR NO CLOUDS BELOW 12,000 FEET WITH NO 
SIGNIFICANT WEATHER AND/OR OBSTRUCTIONS TO VISIBILITY.

MAZALL-281900-
EASTERN MASSACHUSETTS
  
CITY           SKY/WX    TMP DP  RH WIND       PRES   REMARKS
BOSTON         CLOUDY    55  54  96 S20G28    29.67S                  
6HR MIN TEMP:  52; 6HR MAX TEMP:  55; 6HR PCP:  0.06;                

BEVERLY        CLOUDY    56  54  93 S14G22    29.64F                  
LAWRENCE       LGT RAIN  58  54  86 SW9G25    29.64F                  
BEDFORD        CLOUDY    56  53  90 S17G26    29.64F                  
NORWOOD        CLOUDY    57  52  83 S15G32    29.68F HAZE             
MARSHFIELD     CLOUDY    55  54  94 SW15G24   29.70F                  
PLYMOUTH       CLOUDY    54  52  93 SW15G28   29.72F                  
TAUNTON        CLOUDY    55  51  86 SW13G25   29.72F                  
NEW BEDFORD    LGT RAIN  53  52  96 SW21G37   29.73F FOG              
$$

MAZALL-281900-
CAPE COD AND THE ISLANDS
  
CITY           SKY/WX    TMP DP  RH WIND       PRES   REMARKS
FALMOUTH       CLOUDY    55  55 100 SW31G38   29.75F                  
HYANNIS        FOG       49  48  97 S20G30    29.75F VSB 1/4          
CHATHAM        CLOUDY    51  29  42 S15G40    29.78F HAZE             
PROVINCETOWN   LGT RAIN  49  49 100 S22G30    29.73F VSB 3/4          
NANTUCKET      CLOUDY    50  50 100 S25G37    29.81F FOG              
MARTHAS VNYRD  FOG       50  49  96 S18G28    29.77F VSB 1/2          
$$
 
MAZALL-281900-
CENTRAL AND WESTERN MASSACHUSETTS
  
CITY           SKY/WX    TMP DP  RH WIND       PRES   REMARKS
WORCESTER      CLOUDY    53  51  93 S20G31    29.64F                  
6HR MIN TEMP:  50; 6HR MAX TEMP:  53; 6HR PCP:  0.11;                

FITCHBURG      CLOUDY    57  53  86 S9G18     29.62F                  
ORANGE         RAIN      54  52  93 S16G25    29.62F FOG              
SPRINGFIELD    LGT RAIN  55  53  91 S14       29.58F                  
WESTFIELD      LGT RAIN  53  51  93 S13G21    29.62F                  
NORTH ADAMS    RAIN      58  53  84 NE7       29.52F                  
PITTSFIELD     LGT RAIN  54  51  90 S10G23    29.54F FOG              
$$
 
RIZALL-281900-
RHODE ISLAND
  
CITY           SKY/WX    TMP DP  RH WIND       PRES   REMARKS
PROVIDENCE     LGT RAIN  53  53 100 S16G26    29.71F                  
6HR MIN TEMP:  52; 6HR MAX TEMP:  54; 6HR PCP:  0.17;                

NEWPORT        LGT RAIN  50  49  96 S15G31    29.74F FOG              
BLOCK ISLAND   CLOUDY    48  48 100 S20G28    29.74F FOG              
SMITHFIELD       N/A    N/A N/A N/A MISG        N/A                   
WESTERLY       LGT RAIN  50  48  93 S15G25    29.73F FOG              
$$
 
CTZALL-281900-
CONNECTICUT
  
CITY           SKY/WX    TMP DP  RH WIND       PRES   REMARKS
BRADLEY INTL   LGT RAIN  54  51  90 S13       29.64F                  
6HR MIN TEMP:  51; 6HR MAX TEMP:  54; 6HR PCP:  0.13;                

HARTFORD       LGT RAIN  55  52  89 S18G24    29.64F                  
PLAINVILLE     LGT RAIN  52  52 100 S12       29.63F                  
BRIDGEPORT     CLOUDY    51  49  92 S14G23    29.65F FOG              
DANBURY        CLOUDY    54  51  90 S9        29.62F                  
GROTON         LGT RAIN  49  49 100 S8        29.72  FOG              
NEW HAVEN      LGT RAIN  51  49  92 S8        29.67F FOG              
CHESTER        LGT RAIN  52  52 100 S13G21    29.69F                  
MERIDEN        LGT RAIN  53  49  86 S15G31    29.66F                  
WILLIMANTIC    CLOUDY    54  52  93 S15G25    29.67F                  
OXFORD         LGT RAIN  51  51 100 S13G20    29.63F FOG              
$$

MEZ002-015-021-024-NHZ003-005-008-011-012-014-VTZ005-008-281900-
NORTHERN NEW ENGLAND
  
CITY           SKY/WX    TMP DP  RH WIND       PRES   REMARKS
PORTLAND ME    FOG       47  47 100 S18G29    29.64F VSB 1/2          
6HR MIN TEMP:  45; 6HR MAX TEMP:  47; 6HR PCP:  0.15;                

BANGOR ME      LGT RAIN  49  46  90 S24G40    29.65F FOG              
CONCORD NH     CLOUDY    54  52  93 S8G17     29.60F                  
MANCHESTER NH  RAIN      57  53  86 S15       29.59F                  
NASHUA NH      LGT RAIN  56  50  81 VRB5      29.62F                  
PORTSMOUTH NH  LGT RAIN  57  53  86 S9        29.61F                  
JAFFREY NH     LGT RAIN  55  51  86 S12G21    29.59F                  
KEENE NH       LGT RAIN  54  53  97 VRB3      29.59F                  
BURLINGTON VT  CLOUDY    58  50  75 S17G31    29.40F                  
MT. WASHINGTON LGT RAIN  36  36 100 SW49G59     N/A  VSB 0   WCI  19  
$$

NYZ052-076-281900-
EASTERN NEW YORK
  
CITY           SKY/WX    TMP DP  RH WIND       PRES   REMARKS
ALBANY         LGT RAIN  57  53  86 SE18G28   29.49F                  
6HR MIN TEMP:  54; 6HR MAX TEMP:  57; 6HR PCP:  0.07;                

NEW YORK CITY  CLOUDY    53  49  86 S12       29.63F                  
6HR MIN TEMP:  49; 6HR MAX TEMP:  53; 6HR PCP:  0.01;                

$$
 
ANZALL-281900-
MARINE OBSERVATIONS
  
STATION/POSITION TIME  TEMP    WIND        PRES    VSBY  WAVE
                       AIR SEA DIR/SP/G                  HT/PER
                 (UTC) (F)     (DEG/KT/KT) (MB)    (MI)  (FT/S)
BOSTON BUOY      1740   49 40  190/ 17/ 23 1004.8F
BUZZARDS BAY     1700   48     200/ 27/ 29 1008.5F
NANTUCKET SOUND  1740   48 38  180/ 23/ 29 1007.8F
MASS BAY-STELLWA 1604   45 40  180/ 19/ 23 1006.5F  1 7/8  6/ 6
ISLE OF SHOALS   1700   47     180/ 22/ 23 1004.0F
S OF BLOCK IS    1756      41                N/A          10/ 9
$$

......................KEY.........................
  SKY/WX - SKY CONDITION/PRESENT WEATHER
  TMP    - TEMPERATURE IN FAHRENHEIT
  DWPT   - DEWPOINT IN FAHRENHEIT
  RH     - RELATIVE HUMIDITY IN PERCENT
  WIND   - DIRECTION AND SPEED IN MPH
  PRES   - MEAN SEA LEVEL PRESSURE IN INCHES OF HG
  WCI    - WIND CHILL INDEX
  VSB    - VISIBILITY IN MILES
  HX     - HEAT INDEX
  TC     - TEMPERATURE IN CELSIUS
  VRB    - VARIABLE WIND DIRECTION
  N/A    - NOT AVAILABLE
  
      

Other recent Regional Weather Roundups

Sat Mar 2, 8:10am EST

Sat Mar 2, 7:10am EST

Sat Mar 2, 6:10am EST

Sat Mar 2, 5:10am EST

Sat Mar 2, 4:10am EST

Sat Mar 2, 3:10am EST

Sat Mar 2, 2:10am EST

Sat Mar 2, 1:10am EST

Sat Mar 2, 12:10am EST

Fri Mar 1, 11:10pm EST

Fri Mar 1, 10:10pm EST

Fri Mar 1, 9:10pm EST

Fri Mar 1, 8:10pm EST

Fri Mar 1, 7:10pm EST

Fri Mar 1, 6:10pm EST

Fri Mar 1, 5:10pm EST

Fri Mar 1, 4:10pm EST

Fri Mar 1, 3:10pm EST

Fri Mar 1, 2:10pm EST

Fri Mar 1, 1:10pm EST

Fri Mar 1, 12:10pm EST

Fri Mar 1, 11:10am EST

Fri Mar 1, 10:10am EST

Fri Mar 1, 9:10am EST

Fri Mar 1, 8:10am EST

Fri Mar 1, 7:10am EST

Fri Mar 1, 6:10am EST

Fri Mar 1, 5:10am EST

Fri Mar 1, 4:10am EST

Fri Mar 1, 3:10am EST

Fri Mar 1, 2:10am EST

Fri Mar 1, 1:10am EST

Fri Mar 1, 12:10am EST

Thu Feb 29, 11:10pm EST

Thu Feb 29, 10:10pm EST

Thu Feb 29, 9:10pm EST

Thu Feb 29, 8:10pm EST

Thu Feb 29, 7:10pm EST

Thu Feb 29, 6:10pm EST

Thu Feb 29, 5:10pm EST

Thu Feb 29, 4:10pm EST

Thu Feb 29, 3:10pm EST

Thu Feb 29, 2:10pm EST

Thu Feb 29, 1:10pm EST

Thu Feb 29, 12:10pm EST

Thu Feb 29, 11:10am EST

Thu Feb 29, 10:10am EST

Thu Feb 29, 9:10am EST

Thu Feb 29, 8:10am EST

Thu Feb 29, 7:10am EST

Thu Feb 29, 6:10am EST

Thu Feb 29, 5:10am EST

Thu Feb 29, 4:10am EST

Thu Feb 29, 3:10am EST

Thu Feb 29, 2:10am EST

Thu Feb 29, 1:10am EST

Thu Feb 29, 12:10am EST

Wed Feb 28, 11:10pm EST

Wed Feb 28, 10:10pm EST

Wed Feb 28, 9:10pm EST

Wed Feb 28, 8:10pm EST

Wed Feb 28, 7:10pm EST

Wed Feb 28, 6:10pm EST

Wed Feb 28, 5:10pm EST

Wed Feb 28, 4:10pm EST

Wed Feb 28, 3:10pm EST

Wed Feb 28, 2:10pm EST

Wed Feb 28, 12:10pm EST

Wed Feb 28, 11:10am EST

Wed Feb 28, 10:10am EST

Wed Feb 28, 9:10am EST

Wed Feb 28, 8:10am EST

Wed Feb 28, 7:10am EST

Wed Feb 28, 6:10am EST

Wed Feb 28, 5:10am EST

Wed Feb 28, 4:10am EST

Wed Feb 28, 3:10am EST

Wed Feb 28, 2:10am EST

Wed Feb 28, 1:10am EST

Wed Feb 28, 12:10am EST

Tue Feb 27, 11:10pm EST

Tue Feb 27, 10:10pm EST

Tue Feb 27, 9:10pm EST

Tue Feb 27, 8:10pm EST

Tue Feb 27, 7:10pm EST

Tue Feb 27, 6:10pm EST

Tue Feb 27, 5:10pm EST

Tue Feb 27, 4:10pm EST

Tue Feb 27, 3:10pm EST

Tue Feb 27, 2:10pm EST

Tue Feb 27, 1:10pm EST

Tue Feb 27, 12:10pm EST

Tue Feb 27, 11:10am EST

Tue Feb 27, 10:10am EST

Tue Feb 27, 9:10am EST

Tue Feb 27, 8:10am EST

Tue Feb 27, 7:10am EST

Tue Feb 27, 6:10am EST

Tue Feb 27, 5:10am EST

Tue Feb 27, 4:10am EST

Tue Feb 27, 3:10am EST

Tue Feb 27, 2:10am EST

Tue Feb 27, 1:10am EST

Tue Feb 27, 12:10am EST

Mon Feb 26, 11:10pm EST

Mon Feb 26, 10:10pm EST

Mon Feb 26, 9:10pm EST

Mon Feb 26, 8:10pm EST

Mon Feb 26, 7:10pm EST

Mon Feb 26, 6:10pm EST

Mon Feb 26, 5:10pm EST

Mon Feb 26, 4:10pm EST

Mon Feb 26, 3:10pm EST

Mon Feb 26, 2:10pm EST

Mon Feb 26, 1:10pm EST

Mon Feb 26, 12:10pm EST

Mon Feb 26, 11:10am EST

Mon Feb 26, 10:10am EST

Mon Feb 26, 9:10am EST

Mon Feb 26, 8:10am EST

Mon Feb 26, 7:10am EST

Mon Feb 26, 6:10am EST

Mon Feb 26, 5:10am EST

Mon Feb 26, 4:10am EST

Mon Feb 26, 3:10am EST

Mon Feb 26, 2:10am EST

Mon Feb 26, 1:10am EST

Mon Feb 26, 12:10am EST

Sun Feb 25, 11:10pm EST

Sun Feb 25, 10:10pm EST

Sun Feb 25, 9:10pm EST

Sun Feb 25, 8:10pm EST

Sun Feb 25, 7:10pm EST

Sun Feb 25, 6:10pm EST

Sun Feb 25, 5:10pm EST

Sun Feb 25, 4:10pm EST

Sun Feb 25, 3:10pm EST

Sun Feb 25, 2:10pm EST

Sun Feb 25, 1:10pm EST

Sun Feb 25, 12:10pm EST

Sun Feb 25, 11:10am EST

Sun Feb 25, 10:10am EST

Sun Feb 25, 9:10am EST

Sun Feb 25, 8:10am EST

Sun Feb 25, 7:10am EST

Sun Feb 25, 6:10am EST

Sun Feb 25, 5:10am EST

Sun Feb 25, 4:10am EST

Sun Feb 25, 3:10am EST

Sun Feb 25, 2:10am EST

Sun Feb 25, 1:10am EST

Sun Feb 25, 12:10am EST

Sat Feb 24, 11:10pm EST

Sat Feb 24, 10:10pm EST

Sat Feb 24, 9:10pm EST

Sat Feb 24, 8:10pm EST

Sat Feb 24, 7:10pm EST

Sat Feb 24, 6:10pm EST

Sat Feb 24, 5:10pm EST

Sat Feb 24, 4:10pm EST

Sat Feb 24, 3:10pm EST

Sat Feb 24, 2:10pm EST

Sat Feb 24, 1:10pm EST

Sat Feb 24, 12:10pm EST

Sat Feb 24, 11:10am EST

Sat Feb 24, 10:10am EST

Sat Feb 24, 9:10am EST